Flag for U.S.A. Weather past 2 weeks in Toledo, Ohio, U.S.A.

Now
86 °F

Scattered clouds.


Feels Like: 89 °F
Forecast: 69 / 83 °F
Wind: 7 mph from Southwest

Location: Toledo Suburban Airport

Current Time: Sep 1, 2014 at 2:59:45 PM

Latest Report: Sep 1, 2014 at 2:35 PM


Visibility: 10 mi

Pressure: 29.82 "Hg

Humidity: 55%

Dew point: 68 °F

Location of ToledoLocation

Historic Weather in Toledo — Graph

°F

Toledo temperature yesterday

Maximum temperature yesterday: 84 °F (at 4:15 PM)
Minimum temperature yesterday: 73 °F (at 3:35 AM)
Average temperature yesterday: 77 °F

Past Weeks' High & Low Weather Summary

 TemperatureHumidityPressure
High90 °F (Aug 26, 2:34 PM)94% (Aug 19, 2:55 AM)30.17 "Hg (Aug 19, 2:55 AM)
Low57 °F (Aug 29, 1:35 AM)48% (Aug 27, 4:55 PM)29.76 "Hg (Aug 19, 4:35 PM)
Average73 °F76%30.00 "Hg
* Reported Aug 17 1:15 PM — Sep 1 1:35 PM, Toledo, Weather by CustomWeather, © 2014

Note: Actual official high and low records may vary slightly from our data, if they occured in-between our weather recording intervals... More about our weather records

Advertising

Toledo weather history for previous 24 hours

 ConditionsComfort  
Time TempWeatherWind HumidityBarometerVisibility
1:35 PM
Sep 1
82 °FBroken clouds.9 mph66%29.85 "Hg10 mi
1:15 PM82 °FScattered clouds.13 mph66%29.86 "Hg10 mi
12:54 PM81 °FScattered clouds.12 mph70%29.87 "Hg10 mi
12:35 PM81 °FPartly sunny.13 mph70%29.88 "Hg10 mi
12:15 PM79 °FMostly cloudy.9 mph74%29.89 "Hg10 mi
11:54 AM79 °FMostly cloudy.3 mph74%29.89 "Hg10 mi
11:35 AM77 °FMostly cloudy.9 mph79%29.90 "Hg7 mi
11:15 AM75 °FMostly cloudy.10 mph83%29.91 "Hg7 mi
10:55 AM73 °FLow clouds.10 mph83%29.92 "Hg7 mi
10:35 AM73 °FLow clouds.13 mph83%29.92 "Hg10 mi
10:15 AM73 °FOvercast.9 mph83%29.92 "Hg10 mi
9:54 AM73 °FOvercast.10 mph83%29.92 "Hg10 mi
9:35 AM75 °FPartly sunny.12 mph83%29.93 "Hg10 mi
9:15 AM73 °FScattered clouds.9 mph89%29.92 "Hg10 mi
8:54 AM73 °FScattered clouds.6 mph89%29.92 "Hg10 mi
8:35 AM72 °FScattered clouds.8 mph88%29.93 "Hg7 mi
7:54 AM72 °FFog.7 mph88%29.93 "Hg5 mi
7:35 AM70 °FFog.6 mph94%29.94 "Hg5 mi
7:15 AM70 °FFog.6 mph94%29.94 "Hg4 mi
6:55 AM70 °FFog.5 mph94%29.93 "Hg5 mi
6:35 AM70 °FFog.3 mph94%29.93 "Hg5 mi
6:15 AM70 °FFog.3 mph94%29.93 "Hg5 mi
5:54 AM72 °FPassing clouds.3 mph88%29.94 "Hg7 mi
5:35 AM72 °FClear.3 mph88%29.94 "Hg7 mi
5:15 AM72 °FPassing clouds.5 mph88%29.94 "Hg7 mi
4:54 AM72 °FPartly cloudy.5 mph88%29.94 "Hg7 mi
4:35 AM72 °FPassing clouds.3 mph88%29.94 "Hg7 mi
4:15 AM72 °FPassing clouds.3 mph88%29.94 "Hg10 mi
3:54 AM72 °FOvercast.5 mph88%29.94 "Hg10 mi
3:35 AM72 °FPassing clouds.3 mph88%29.95 "Hg7 mi
3:15 AM72 °FClear.5 mph88%29.95 "Hg7 mi
2:55 AM72 °FClear.5 mph88%29.95 "Hg7 mi
2:35 AM72 °FPassing clouds.6 mph88%29.96 "Hg10 mi
2:15 AM72 °FPassing clouds.6 mph88%29.96 "Hg7 mi
1:54 AM72 °FClear.3 mph88%29.96 "Hg10 mi
1:35 AM73 °FClear.8 mph83%29.96 "Hg10 mi
1:15 AM73 °FClear.5 mph83%29.95 "Hg10 mi
12:54 AM73 °FClear.5 mph83%29.95 "Hg10 mi
12:35 AM73 °FClear.6 mph83%29.94 "Hg10 mi
12:15 AM73 °FClear.5 mph83%29.94 "Hg10 mi
11:55 PM
Aug 31
73 °FClear.5 mph83%29.94 "Hg10 mi
11:35 PM73 °FClear.5 mph83%29.94 "Hg10 mi
11:15 PM73 °FClear.5 mph83%29.94 "Hg10 mi
10:55 PM73 °FClear.3 mph83%29.95 "Hg10 mi
10:35 PM73 °FClear.3 mph83%29.95 "Hg10 mi
10:15 PM73 °FClear.3 mph83%29.95 "Hg10 mi
9:54 PM73 °FClear.No wind83%29.95 "Hg10 mi
9:35 PM73 °FClear.No wind83%29.95 "Hg10 mi
9:15 PM73 °FClear.No wind83%29.95 "Hg10 mi
8:54 PM73 °FSunny.No wind83%29.95 "Hg10 mi
8:35 PM73 °FSunny.No wind83%29.95 "Hg10 mi
7:55 PM81 °FSunny.3 mph66%29.94 "Hg10 mi
7:35 PM81 °FSunny.5 mph66%29.94 "Hg10 mi
7:15 PM81 °FSunny.5 mph66%29.94 "Hg10 mi
6:54 PM82 °FSunny.3 mph62%29.94 "Hg10 mi
6:35 PM82 °FScattered clouds.8 mph62%29.94 "Hg10 mi
6:15 PM82 °FScattered clouds.6 mph62%29.94 "Hg10 mi
5:54 PM82 °FScattered clouds.7 mph62%29.94 "Hg10 mi
5:35 PM82 °FScattered clouds.6 mph58%29.94 "Hg10 mi
5:15 PM82 °FBroken clouds.6 mph62%29.94 "Hg10 mi
4:54 PM84 °FScattered clouds.7 mph55%29.94 "Hg10 mi
4:35 PM84 °FScattered clouds.7 mph58%29.94 "Hg10 mi
4:15 PM84 °FBroken clouds.7 mph58%29.94 "Hg10 mi
3:55 PM82 °FPartly sunny.7 mph62%29.95 "Hg10 mi
3:35 PM82 °FBroken clouds.7 mph62%29.95 "Hg10 mi
3:15 PM82 °FScattered clouds.7 mph62%29.96 "Hg10 mi
2:54 PM82 °FScattered clouds.6 mph62%29.96 "Hg10 mi
2:35 PM81 °FSunny.7 mph66%29.97 "Hg10 mi
Weather by CustomWeather, © 2014

See weather overviewHow to use our weather pages